EB5ETD Weather Reports


Display with metric or nautical units.
time (UTC)temp
F
wind
direction
speed
MPH
gust
MPH
rain 1hr
in
rain 24hr
in
rain mn
in
humidity
%
barometer
mb
20260904190504 87 301 1.0 3.0 0.00 0.00 0.00 56 1026.1
20260904190004 87 301 0.0 0.0 0.00 0.00 0.00 55 1026.3
20260904185004 88 301 0.0 3.0 0.00 0.00 0.00 54 1025.9
20260904184504 89 73 0.0 2.0 0.00 0.00 0.00 52 1025.8
20260904183504 89 343 0.0 2.0 0.00 0.00 0.00 50 1025.7
20260904183004 90 18 2.0 3.0 0.00 0.00 0.00 44 1025.6
20260904182004 91 28 1.0 2.0 0.00 0.00 0.00 41 1025.6
20260904181504 91 7 0.0 1.0 0.00 0.00 0.00 38 1025.5
20260904181004 92 7 0.0 1.0 0.00 0.00 0.00 34 1025.5
20260904180504 92 355 0.0 1.0 0.00 0.00 0.00 33 1025.4
20260904180003 92 90 1.0 3.0 0.00 0.00 0.00 33 1025.5
20260904175503 93 43 1.0 3.0 0.00 0.00 0.00 33 1025.4
20260904174504 94 43 2.0 5.0 0.00 0.00 0.00 29 1025.5
20260904174004 94 63 2.0 3.0 0.00 0.00 0.00 26 1025.4
20260904173504 94 54 2.0 5.0 0.00 0.00 0.00 25 1025.2
20260904173004 95 54 2.0 5.0 0.00 0.00 0.00 25 1025.1
20260904172503 95 51 2.0 6.0 0.00 0.00 0.00 24 1025.1
20260904172004 96 54 3.0 6.0 0.00 0.00 0.00 22 1025.0
20260904171004 97 56 3.0 5.0 0.00 0.00 0.00 20 1024.9
20260904170503 97 49 3.0 9.0 0.00 0.00 0.00 19 1024.9
20260904170004 97 48 4.0 6.0 0.00 0.00 0.00 18 1024.9
20260904165504 98 52 3.0 5.0 0.00 0.00 0.00 21 1024.8
20260904165004 98 38 2.0 8.0 0.00 0.00 0.00 20 1024.8
20260904164504 98 44 3.0 7.0 0.00 0.00 0.00 20 1024.6
20260904164005 98 44 4.0 7.0 0.00 0.00 0.00 20 1024.8
20260904163504 99 50 3.0 7.0 0.00 0.00 0.00 19 1024.7
20260904163004 99 52 5.0 8.0 0.00 0.00 0.00 19 1024.7
20260904162504 100 51 2.0 8.0 0.00 0.00 0.00 18 1024.5
20260904162004 100 49 3.0 7.0 0.00 0.00 0.00 18 1024.5
20260904161504 100 35 2.0 7.0 0.00 0.00 0.00 17 1024.5
20260904161004 100 40 4.0 8.0 0.00 0.00 0.00 17 1024.5
20260904160504 100 37 5.0 7.0 0.00 0.00 0.00 17 1024.6
20260904160004 100 41 2.0 6.0 0.00 0.00 0.00 16 1024.6
20260904155504 100 59 4.0 8.0 0.00 0.00 0.00 15 1024.6
20260904154504 100 48 3.0 9.0 0.00 0.00 0.00 15 1024.7
20260904154004 100 44 5.0 8.0 0.00 0.00 0.00 14 1024.7
20260904153504 99 57 5.0 8.0 0.00 0.00 0.00 16 1024.6
20260904153004 100 43 2.0 9.0 0.00 0.00 0.00 18 1024.7
20260904152503 100 57 6.0 9.0 0.00 0.00 0.00 17 1024.5
20260904152003 101 56 3.0 7.0 0.00 0.00 0.00 18 1024.4
20260904151504 100 46 2.0 6.0 0.00 0.00 0.00 18 1024.4
20260904151004 100 42 5.0 9.0 0.00 0.00 0.00 18 1024.4
20260904150503 99 50 5.0 10.0 0.00 0.00 0.00 20 1024.6
20260904150003 100 56 6.0 10.0 0.00 0.00 0.00 20 1024.6
20260904145504 100 45 6.0 12.0 0.00 0.00 0.00 19 1024.8
20260904145004 100 58 3.0 7.0 0.00 0.00 0.00 19 1024.5
20260904144504 101 45 5.0 8.0 0.00 0.00 0.00 19 1024.5
20260904144003 99 47 6.0 10.0 0.00 0.00 0.00 19 1024.7
20260904143503 100 60 5.0 8.0 0.00 0.00 0.00 19 1024.7
20260904142504 99 42 6.0 14.0 0.00 0.00 0.00 19 1024.8
20260904142004 99 41 6.0 12.0 0.00 0.00 0.00 22 1024.7
20260904141504 100 44 6.0 12.0 0.00 0.00 0.00 19 1024.7
20260904141004 100 60 7.0 14.0 0.00 0.00 0.00 19 1025.0
20260904140504 100 41 7.0 12.0 0.00 0.00 0.00 25 1024.9
20260904134504 100 51 6.0 14.0 0.00 0.00 0.00 16 1024.9
20260904134005 100 57 6.0 14.0 0.00 0.00 0.00 17 1024.9
20260904133505 101 48 4.0 9.0 0.00 0.00 0.00 18 1024.6
20260904132504 101 33 6.0 14.0 0.00 0.00 0.00 18 1025.0
20260904132004 99 38 6.0 12.0 0.00 0.00 0.00 20 1024.9
20260904131003 99 60 3.0 12.0 0.00 0.00 0.00 25 1025.1
20260904130004 99 46 7.0 12.0 0.00 0.00 0.00 24 1025.3
20260904125504 99 28 5.0 12.0 0.00 0.00 0.00 24 1025.1
20260904125003 100 40 4.0 8.0 0.00 0.00 0.00 27 1025.4
20260904124504 100 79 3.0 6.0 0.00 0.00 0.00 27 1025.2
20260904123503 99 56 2.0 6.0 0.00 0.00 0.00 29 1025.4
20260904123005 98 277 4.0 9.0 0.00 0.00 0.00 32 1025.4
20260904122504 98 76 3.0 7.0 0.00 0.00 0.00 32 1025.6
20260904122004 98 55 3.0 7.0 0.00 0.00 0.00 31 1025.7
20260904121504 97 51 4.0 9.0 0.00 0.00 0.00 35 1025.6
20260904121004 97 53 5.0 8.0 0.00 0.00 0.00 37 1025.9
20260904120004 98 56 2.0 7.0 0.00 0.00 0.00 35 1025.6
20260904115004 97 58 5.0 9.0 0.00 0.00 0.00 36 1025.7
20260904114004 97 86 3.0 7.0 0.00 0.00 0.00 36 1025.9
20260904113504 96 73 2.0 5.0 0.00 0.00 0.00 36 1026.2
20260904113004 96 43 3.0 6.0 0.00 0.00 0.00 36 1026.1
20260904112504 96 49 1.0 5.0 0.00 0.00 0.00 38 1026.2
20260904111504 94 51 3.0 7.0 0.00 0.00 0.00 40 1026.3
20260904111003 94 59 4.0 8.0 0.00 0.00 0.00 41 1026.4
20260904110003 94 75 3.0 6.0 0.00 0.00 0.00 40 1026.4
20260904105503 93 51 3.0 6.0 0.00 0.00 0.00 42 1026.6
20260904105004 93 16 1.0 5.0 0.00 0.00 0.00 42 1026.6
20260904104505 93 48 5.0 7.0 0.00 0.00 0.00 43 1026.7
20260904103505 92 67 2.0 5.0 0.00 0.00 0.00 44 1026.7
20260904103003 91 69 3.0 7.0 0.00 0.00 0.00 46 1026.8
20260904102503 92 81 2.0 6.0 0.00 0.00 0.00 45 1026.8
20260904102004 91 15 3.0 7.0 0.00 0.00 0.00 46 1026.8
20260904101503 91 48 3.0 6.0 0.00 0.00 0.00 47 1026.9
20260904101004 91 31 2.0 5.0 0.00 0.00 0.00 47 1026.9
20260904100504 90 67 3.0 6.0 0.00 0.00 0.00 46 1027.0
20260904100004 90 60 3.0 7.0 0.00 0.00 0.00 47 1027.1
20260904095504 89 41 4.0 8.0 0.00 0.00 0.00 48 1027.2
20260904095004 89 49 3.0 7.0 0.00 0.00 0.00 47 1027.3
20260904094503 89 40 3.0 7.0 0.00 0.00 0.00 47 1027.3
20260904094003 89 64 3.0 7.0 0.00 0.00 0.00 47 1027.2
20260904093504 89 58 3.0 7.0 0.00 0.00 0.00 47 1027.3
20260904093004 88 45 2.0 7.0 0.00 0.00 0.00 48 1027.2
20260904092503 88 61 3.0 6.0 0.00 0.00 0.00 48 1027.1
20260904092004 88 38 3.0 6.0 0.00 0.00 0.00 48 1027.2
20260904091503 89 53 2.0 3.0 0.00 0.00 0.00 47 1027.1
20260904091004 89 53 3.0 5.0 0.00 0.00 0.00 46 1026.9
20260904090504 88 67 1.0 3.0 0.00 0.00 0.00 46 1026.9
20260904090003 87 70 2.0 3.0 0.00 0.00 0.00 47 1027.1
20260904085004 89 111 1.0 2.0 0.00 0.00 0.00 46 1026.7
20260904084505 88 112 0.0 2.0 0.00 0.00 0.00 46 1026.8
20260904084005 87 112 0.0 2.0 0.00 0.00 0.00 49 1026.9
20260904083504 87 109 1.0 2.0 0.00 0.00 0.00 49 1027.0
20260904083004 86 109 1.0 2.0 0.00 0.00 0.00 50 1027.0
20260904082504 85 107 2.0 2.0 0.00 0.00 0.00 51 1027.0
20260904082004 84 108 1.0 2.0 0.00 0.00 0.00 51 1027.2
20260904081504 83 109 1.0 3.0 0.00 0.00 0.00 52 1027.3
20260904081003 85 116 0.0 1.0 0.00 0.00 0.00 50 1027.0
20260904080504 85 113 1.0 2.0 0.00 0.00 0.00 50 1027.0
20260904080005 85 157 0.0 2.0 0.00 0.00 0.00 49 1027.0
20260904075503 85 157 0.0 2.0 0.00 0.00 0.00 49 1027.0
20260904075004 84 157 0.0 1.0 0.00 0.00 0.00 49 1027.2
20260904074504 84 157 0.0 1.0 0.00 0.00 0.00 49 1027.1
20260904074005 84 157 0.0 1.0 0.00 0.00 0.00 49 1027.0
20260904073503 84 157 0.0 1.0 0.00 0.00 0.00 49 1027.2
20260904073004 83 157 0.0 0.0 0.00 0.00 0.00 49 1027.3
20260904072503 82 157 0.0 1.0 0.00 0.00 0.00 51 1027.1
20260904072004 81 157 0.0 0.0 0.00 0.00 0.00 52 1027.3
20260904071504 79 157 0.0 1.0 0.00 0.00 0.00 53 1027.6
20260904071003 78 157 1.0 1.0 0.00 0.00 0.00 55 1027.6
20260904070003 75 203 0.0 1.0 0.00 0.00 0.00 59 1027.4
20260904065504 74 203 1.0 1.0 0.00 0.00 0.00 60 1027.6
20260904065004 74 203 1.0 1.0 0.00 0.00 0.00 61 1027.6
20260904064504 74 203 0.0 0.0 0.00 0.00 0.00 60 1027.6
20260904064004 74 203 0.0 1.0 0.00 0.00 0.00 61 1027.7
20260904063504 73 203 0.0 1.0 0.00 0.00 0.00 63 1027.8
20260904063005 72 203 1.0 1.0 0.00 0.00 0.00 63 1027.6
20260904062003 71 203 1.0 1.0 0.00 0.00 0.00 66 1027.7
20260904061504 71 203 0.0 1.0 0.00 0.00 0.00 66 1027.6
20260904061004 70 203 0.0 1.0 0.00 0.00 0.00 67 1027.8
20260904055504 69 207 0.0 0.0 0.00 0.00 0.00 69 1027.7
20260904055004 69 207 0.0 0.0 0.00 0.00 0.00 69 1027.8
20260904054005 69 207 0.0 0.0 0.00 0.00 0.00 72 1027.7
20260904053505 69 207 0.0 0.0 0.00 0.00 0.00 72 1027.8
20260904053003 69 207 0.0 1.0 0.00 0.00 0.00 72 1027.5
20260904052504 69 207 0.0 1.0 0.00 0.00 0.00 72 1027.7
20260904052004 69 207 0.0 0.0 0.00 0.00 0.00 72 1027.6
20260904051504 69 207 0.0 0.0 0.00 0.00 0.00 72 1027.5
20260904051003 69 207 0.0 0.0 0.00 0.00 0.00 71 1027.4
20260904050504 69 207 0.0 1.0 0.00 0.00 0.00 72 1027.4
20260904050004 69 207 1.0 1.0 0.00 0.00 0.00 72 1027.4
20260904045504 70 207 0.0 1.0 0.00 0.00 0.00 73 1027.4
20260904045003 70 207 0.0 1.0 0.00 0.00 0.00 72 1027.5
20260904044503 70 207 0.0 1.0 0.00 0.00 0.00 73 1027.3
20260904044004 70 208 1.0 2.0 0.00 0.00 0.00 72 1027.3
20260904043504 70 189 1.0 1.0 0.00 0.00 0.00 73 1027.3
20260904042004 70 189 0.0 0.0 0.00 0.00 0.00 74 1027.3
20260904041004 70 189 0.0 0.0 0.00 0.00 0.00 74 1027.2
20260904040504 70 189 0.0 0.0 0.00 0.00 0.00 75 1027.3
20260904040004 70 189 1.0 2.0 0.00 0.00 0.00 75 1027.2
20260904035003 70 189 0.0 0.0 0.00 0.00 0.00 76 1027.3
20260904034504 70 189 0.0 0.0 0.00 0.00 0.00 76 1027.2
20260904034004 70 189 0.0 0.0 0.00 0.00 0.00 76 1027.3
20260904033504 71 189 0.0 0.0 0.00 0.00 0.00 75 1027.5
20260904033004 70 189 0.0 0.0 0.00 0.00 0.00 75 1027.5
20260904032504 71 188 0.0 1.0 0.00 0.00 0.00 75 1027.5
20260904032003 71 189 0.0 1.0 0.00 0.00 0.00 74 1027.6
20260904031504 71 189 0.0 0.0 0.00 0.00 0.00 74 1027.4
20260904031004 71 189 0.0 0.0 0.00 0.00 0.00 74 1027.6
20260904030504 71 189 0.0 0.0 0.00 0.00 0.00 75 1027.3
20260904025503 71 190 0.0 1.0 0.00 0.00 0.00 76 1027.3
20260904025003 71 190 0.0 1.0 0.00 0.00 0.00 75 1027.3
20260904024504 71 191 1.0 1.0 0.00 0.00 0.00 75 1027.2
20260904024004 71 191 1.0 1.0 0.00 0.00 0.00 76 1027.2
20260904023504 71 190 0.0 1.0 0.00 0.00 0.00 75 1027.4
20260904023004 71 190 1.0 1.0 0.00 0.00 0.00 75 1027.5
20260904022504 71 189 0.0 0.0 0.00 0.00 0.00 76 1027.6
20260904022004 71 189 0.0 1.0 0.00 0.00 0.00 75 1027.7
20260904021504 71 183 1.0 2.0 0.00 0.00 0.00 75 1027.6
20260904021004 71 206 1.0 2.0 0.00 0.00 0.00 76 1027.8
20260904020504 71 190 1.0 1.0 0.00 0.00 0.00 76 1027.7
20260904020004 71 190 0.0 0.0 0.00 0.00 0.00 77 1027.7
20260904015503 71 190 0.0 0.0 0.00 0.00 0.00 76 1027.7
20260904015004 72 190 0.0 1.0 0.00 0.00 0.00 76 1027.8
20260904014503 72 192 0.0 1.0 0.00 0.00 0.00 75 1027.8
20260904014003 72 192 0.0 1.0 0.00 0.00 0.00 74 1027.9
20260904013004 72 193 0.0 2.0 0.00 0.00 0.00 74 1028.0
20260904012504 72 184 1.0 2.0 0.00 0.00 0.00 74 1028.1
20260904012004 72 152 0.0 1.0 0.00 0.00 0.00 74 1028.1
20260904011504 73 237 0.0 1.0 0.00 0.00 0.00 74 1028.0
20260904011004 72 241 1.0 2.0 0.00 0.00 0.00 74 1028.2
20260904010504 73 238 1.0 3.0 0.00 0.00 0.00 74 1028.1
20260904010003 73 212 1.0 3.0 0.00 0.00 0.00 74 1028.1
20260904005504 73 37 1.0 2.0 0.00 0.00 0.00 73 1028.3
20260904005004 73 76 1.0 2.0 0.00 0.00 0.00 73 1028.4
20260904004505 73 200 0.0 1.0 0.00 0.00 0.00 74 1028.1
20260904004004 73 200 0.0 1.0 0.00 0.00 0.00 74 1028.5
20260904003504 73 202 0.0 0.0 0.00 0.00 0.00 73 1028.3
20260904003003 73 202 0.0 2.0 0.00 0.00 0.00 73 1028.4
20260904002503 73 211 1.0 2.0 0.00 0.00 0.00 72 1028.4
20260904002004 73 205 1.0 1.0 0.00 0.00 0.00 72 1028.7
20260904001504 73 205 0.0 2.0 0.00 0.00 0.00 72 1028.6
20260904001005 73 143 1.0 1.0 0.00 0.00 0.00 71 1028.5
20260904000503 73 206 0.0 1.0 0.00 0.00 0.00 72 1028.6
20260904000004 73 206 0.0 0.0 0.00 0.00 0.00 72 1028.8
20260903235004 74 206 0.0 0.0 0.00 0.00 0.00 72 1028.5
20260903234504 74 206 0.0 0.0 0.00 0.00 0.00 71 1028.6
20260903233504 74 206 1.0 1.0 0.00 0.00 0.00 72 1028.8
20260903233003 74 130 0.0 2.0 0.00 0.00 0.00 72 1028.9
20260903232504 74 72 0.0 2.0 0.00 0.00 0.00 71 1028.7
20260903232004 74 72 0.0 1.0 0.00 0.00 0.00 71 1028.7
20260903231003 74 72 1.0 2.0 0.00 0.00 0.00 72 1028.8
20260903230504 74 72 0.0 0.0 0.00 0.00 0.00 73 1028.8
20260903230004 75 72 0.0 1.0 0.00 0.00 0.00 72 1028.9
20260903225503 74 72 0.0 0.0 0.00 0.00 0.00 72 1028.8
20260903225004 75 72 0.0 1.0 0.00 0.00 0.00 72 1028.9
20260903224503 75 72 0.0 1.0 0.00 0.00 0.00 72 1029.2
20260903224003 76 72 0.0 1.0 0.00 0.00 0.00 71 1028.9
20260903223503 75 72 0.0 1.0 0.00 0.00 0.00 71 1029.0
20260903221504 76 72 1.0 1.0 0.00 0.00 0.00 73 1029.0
20260903221004 76 72 0.0 0.0 0.00 0.00 0.00 73 1028.9
20260903220504 76 72 0.0 1.0 0.00 0.00 0.00 73 1028.8
20260903220004 76 72 0.0 1.0 0.00 0.00 0.00 74 1028.8
20260903215504 77 72 0.0 1.0 0.00 0.00 0.00 77 1028.8
20260903214504 76 71 0.0 1.0 0.00 0.00 0.00 73 1029.0
20260903213504 76 72 0.0 1.0 0.00 0.00 0.00 76 1029.0
20260903213004 76 72 0.0 1.0 0.00 0.00 0.00 78 1029.1
20260903212005 77 72 1.0 2.0 0.00 0.00 0.00 77 1029.3
20260903211504 76 72 0.0 1.0 0.00 0.00 0.00 77 1029.1
20260903211004 78 72 1.0 2.0 0.00 0.00 0.00 82 1029.2
20260903210504 78 72 1.0 1.0 0.00 0.00 0.00 82 1029.4
20260903205504 78 72 1.0 3.0 0.00 0.00 0.00 81 1029.3
20260903205003 79 70 1.0 1.0 0.00 0.00 0.00 79 1029.1
20260903204504 78 70 1.0 2.0 0.00 0.00 0.00 74 1029.2
20260903204004 79 70 0.0 1.0 0.00 0.00 0.00 78 1029.1
20260903203504 79 70 1.0 2.0 0.00 0.00 0.00 80 1029.0
20260903203004 79 70 1.0 2.0 0.00 0.00 0.00 80 1029.0
20260903202504 79 70 1.0 3.0 0.00 0.00 0.00 79 1028.9
20260903202004 80 70 2.0 3.0 0.00 0.00 0.00 78 1028.9
20260903201504 80 69 1.0 2.0 0.00 0.00 0.00 77 1028.9
20260903201003 80 89 1.0 3.0 0.00 0.00 0.00 76 1028.9
20260903200503 81 71 1.0 3.0 0.00 0.00 0.00 75 1028.9
20260903200003 81 68 1.0 3.0 0.00 0.00 0.00 74 1028.6
20260903195503 81 64 1.0 2.0 0.00 0.00 0.00 74 1028.6
20260903195004 81 65 1.0 3.0 0.00 0.00 0.00 73 1028.5
20260903194504 82 64 2.0 3.0 0.00 0.00 0.00 73 1028.3
20260903194004 82 64 2.0 5.0 0.00 0.00 0.00 72 1028.4
20260903193504 82 58 3.0 5.0 0.00 0.00 0.00 71 1028.3
20260903193004 83 62 2.0 3.0 0.00 0.00 0.00 69 1028.4
20260903192504 83 64 2.0 2.0 0.00 0.00 0.00 69 1028.2
20260903191505 83 55 2.0 5.0 0.00 0.00 0.00 68 1028.0
20260903191004 84 59 2.0 3.0 0.00 0.00 0.00 68 1028.0